RH
14 13 12 12 12 12 12 13 13 12 12 12 12 12 16 22 31 48 56 58 56 52 49 45 51 52 43 28 20 16 15 15 14
12 12 12 12 12 12 10 8 7 6 6 6 6 6 7 13 28 42 48 55 63 61 60 58 53 50 56 55 35 25 19 17 16
12 11 9 8 6 5 5 5 5 6 7 7 8 8 7 7 7 9 25 36 55 63 61 57 60 60 54 57 71 59 33 25 20
9 7 6 5 5 6 7 8 8 8 8 9 9 9 9 9 10 10 9 8 19 27 42 51 51 56 66 65 67 74 71 71 45
5 5 5 6 7 7 7 7 8 8 8 8 8 9 9 10 10 11 12 12 12 13 17 36 48 45 47 65 65 73 80 84 91
5 6 6 6 6 7 7 7 7 7 8 9 11 12 14 14 14 14 14 15 48 35 14 14 36 43 37 42 67 70 68 75 82
5 5 6 6 6 6 6 7 10 13 14 15 16 16 16 16 16 16 16 16 18 17 25 20 24 42 58 63 58 64 75 74 74
6 6 6 6 6 7 11 12 13 14 13 12 12 12 12 12 12 12 11 12 14 16 16 16 17 17 19 52 52 64 70 68 71
6 6 6 8 10 12 13 12 11 10 8 8 9 10 10 10 11 12 13 11 9 10 11 12 13 15 16 16 25 51 53 58 59
7 9 11 12 12 12 11 10 9 8 9 11 14 15 16 17 19 20 22 23 21 21 19 13 10 10 11 12 15 16 19 46 58
12 12 12 10 9 8 8 7 7 9 12 15 17 19 20 20 21 23 24 26 22 22 23 21 17 16 15 14 12 11 12 14 17
12 10 8 7 7 6 7 8 11 14 16 17 17 18 20 22 20 13 10 10 10 10 10 10 11 11 11 12 15 18 18 15 12
9 8 7 6 7 8 9 12 15 17 16 14 18 18 12 10 10 10 10 9 9 9 8 9 10 9 10 10 10 10 11 13 17
8 7 7 7 8 10 15 16 17 16 12 11 11 10 11 11 11 11 10 10 10 10 9 9 10 10 10 11 12 13 13 14 15
8 8 8 9 11 14 17 17 18 15 13 11 12 13 12 13 13 13 13 13 12 12 12 11 11 11 12 15 18 21 25 26 26
11 12 12 13 16 21 19 19 17 16 15 14 13 14 14 15 16 15 16 15 15 15 14 13 15 17 18 19 22 22 20 22 24
17 16 15 15 24 25 22 20 20 18 16 16 15 16 17 18 16 16 16 16 17 17 16 15 14 12 12 16 18 24 25 28 29
16 14 13 20 26 25 23 21 18 18 16 15 16 17 18 17 16 15 16 16 17 18 18 17 16 15 14 13 19 34 36 41 42
14 13 17 24 25 23 21 18 17 15 16 16 16 17 18 17 16 14 15 15 16 16 17 19 18 19 19 17 14 22 34 44 49
13 13 19 26 24 20 17 16 15 16 17 18 18 18 17 16 16 16 16 15 15 15 15 17 18 19 22 22 19 15 28 51 57
Wind_Speed
15 15 15 16 16 16 15 15 14 14 15 15 15 15 15 15 15 16 16 16 14 15 14 14 13 14 14 12 12 11 11 11 11
15 16 16 16 16 17 17 17 17 17 17 17 17 17 17 16 15 16 17 17 16 15 15 15 16 15 15 14 13 13 14 12 12
16 16 17 17 18 18 19 20 20 20 21 21 21 20 19 18 18 19 19 19 18 19 18 17 17 17 16 14 15 15 15 15 15
16 16 18 18 18 20 20 21 22 23 23 25 25 25 24 23 23 23 23 22 21 23 21 20 20 19 18 16 16 17 16 15 15
17 17 18 19 20 22 23 24 25 26 27 28 29 28 28 28 27 27 26 27 26 23 22 22 22 22 21 20 19 19 19 19 18
18 18 20 22 24 25 27 28 29 30 30 32 32 32 31 32 31 30 29 29 25 26 26 24 23 23 23 24 23 22 22 22 22
20 22 23 25 26 28 30 31 33 35 35 35 36 34 34 34 33 32 31 31 31 30 29 28 26 26 25 25 26 26 25 24 25
23 24 26 28 29 31 33 35 35 35 32 32 31 31 30 30 30 31 31 29 29 30 31 31 31 30 30 28 28 27 27 27 27
25 27 29 31 33 34 35 35 35 34 32 31 29 29 28 28 27 27 28 29 29 26 28 30 30 30 31 32 31 29 30 31 29
28 30 32 33 34 34 34 34 34 33 33 32 30 29 28 27 26 25 25 26 26 25 25 28 28 28 29 31 32 33 34 31 30
30 31 32 32 33 32 32 32 31 31 33 31 29 27 25 24 21 21 22 22 22 20 20 23 24 24 26 28 30 32 34 36 37
31 31 31 31 31 31 31 31 31 30 27 26 24 21 19 17 16 15 15 16 16 16 15 18 19 20 20 22 26 29 32 35 38
31 31 31 31 31 31 31 30 28 24 20 18 15 11 10 10 12 13 13 14 14 15 15 15 17 18 19 20 23 25 28 32 35
30 30 30 30 30 30 29 28 24 19 16 12 10 9 8 9 9 9 10 10 11 12 13 13 15 16 18 21 23 26 28 31 33
30 30 30 30 29 28 27 24 19 15 13 11 10 9 8 7 7 7 8 9 9 10 11 12 13 15 18 20 22 23 25 26 28
30 30 29 28 27 26 23 19 15 14 12 11 11 9 8 7 6 7 8 9 9 9 9 10 10 12 14 17 18 20 22 22 25
28 27 27 27 24 23 19 15 13 13 12 12 11 9 7 7 7 7 7 8 9 9 9 9 10 12 14 15 18 19 20 23 25
25 25 25 24 22 19 16 13 12 11 11 10 10 9 8 8 8 8 8 9 10 11 11 12 13 14 15 16 17 16 17 23 23
24 23 23 21 18 15 12 12 12 11 10 9 8 7 8 7 8 8 9 9 10 11 12 13 14 16 17 17 17 17 21 21 20
21 22 21 18 15 13 11 10 10 10 11 10 10 9 9 8 6 6 11 11 10 10 11 12 14 16 17 18 18 18 20 17 21
Wind_Direction
328 328 325 323 323 323 323 322 320 319 317 315 312 310 309 304 301 300 302 304 310 313 316 315 315 316 315 316 320 320 321 320 318
327 325 324 323 322 323 322 321 319 317 313 311 308 308 308 306 303 297 294 293 294 295 299 303 306 308 308 306 314 316 316 315 315
325 325 323 322 320 319 319 318 317 315 313 311 308 307 305 300 297 292 289 288 289 288 289 292 293 295 299 301 298 309 311 313 314
319 320 316 318 318 317 315 313 311 309 308 306 305 305 302 299 296 290 288 284 280 280 281 282 284 285 288 288 290 288 291 300 307
315 318 316 317 315 313 312 311 309 307 306 303 301 299 297 294 290 288 286 286 284 280 277 278 278 280 281 280 278 277 283 285 288
317 318 315 316 314 314 314 313 310 306 304 300 297 295 292 288 286 283 283 283 282 282 282 279 277 278 277 273 272 271 271 275 279
317 318 316 315 314 314 313 311 308 304 302 297 294 292 289 287 286 284 281 279 279 280 280 277 270 268 272 272 272 269 269 270 273
320 319 318 317 316 314 311 310 306 305 303 299 296 294 291 287 286 286 286 281 276 276 275 273 271 269 266 269 268 271 272 271 271
320 318 318 317 315 314 312 311 308 306 304 300 297 294 291 288 286 283 282 284 282 277 273 272 271 268 266 264 264 264 266 268 270
320 319 317 316 315 314 312 311 310 307 303 301 297 293 291 289 287 287 285 284 284 281 276 273 272 270 268 266 263 262 261 262 267
320 318 318 317 317 315 314 311 310 308 305 302 297 295 292 291 289 287 286 285 285 282 274 271 271 270 269 268 266 264 262 260 258
319 319 318 317 316 315 314 314 312 310 307 303 300 296 293 291 289 288 288 288 288 287 279 276 278 275 272 269 266 265 262 260 258
319 318 317 317 317 317 316 315 312 309 306 304 304 303 301 298 295 294 295 294 291 289 286 282 277 278 276 273 269 268 266 264 262
318 317 318 318 318 317 315 314 310 304 301 301 305 305 302 299 301 304 304 301 296 293 294 291 285 283 281 278 277 274 274 274 271
318 318 317 316 316 314 312 310 304 296 293 296 298 303 303 306 314 315 311 306 304 305 303 301 298 295 290 290 290 296 290 290 289
319 317 315 315 315 314 310 306 298 294 293 295 300 307 308 307 316 317 316 316 316 314 314 312 311 307 306 309 309 303 304 301 297
319 319 319 318 318 316 310 303 299 296 297 300 303 308 310 313 317 325 319 318 324 328 330 330 325 324 325 318 320 317 312 308 308
323 323 323 321 318 317 310 305 300 300 302 304 307 312 313 321 329 324 337 337 338 338 337 331 334 331 328 337 332 327 316 311 308
324 325 325 323 321 318 315 314 311 307 301 300 299 301 306 318 327 331 336 341 350 344 336 331 331 329 336 336 339 331 321 317 319
322 325 327 325 321 316 313 312 312 308 304 303 302 304 306 310 322 322 326 336 341 344 338 328 325 324 338 337 344 338 329 337 332